Hourly Data Report for May 30, 2004

TORONTO CITY
ONTARIO

43°40'00.000" N
79°24'00.000" W
112.50 m
6158355
71508
XTO

Download Data

Hourly Data (May 2004)
Hourly Data Report for May 30, 2004
TIME
LST
Temp Definition
°C
Dew Point Definition
°C
Rel Hum Definition
%
Precip. Amount Definition
mm

Wind Dir Definition
10's deg

Wind Spd Definition
km/h
Visibility Definition
km
Stn Press Definition
kPa
Hmdx Definition


Wind Chill Definition


Weather Definition


00:00 12.0 0.9 47   LegendMM LegendMM LegendMM 100.41     LegendNANA
01:00 11.4 0.8 48   LegendMM LegendMM LegendMM 100.39     LegendNANA
02:00 9.8 1.3 55   LegendMM LegendMM LegendMM 100.39     LegendNANA
03:00 8.6 2.0 63   LegendMM LegendMM LegendMM 100.47     LegendNANA
04:00 8.4 2.6 67   LegendMM LegendMM LegendMM 100.48     LegendNANA
05:00 8.0 2.7 69   LegendMM LegendMM LegendMM 100.53     LegendNANA
06:00 9.2 3.0 65   LegendMM LegendMM LegendMM 100.51     LegendNANA
07:00 12.7 2.5 50   LegendMM LegendMM LegendMM 100.47     LegendNANA
08:00 14.2 1.6 42   LegendMM LegendMM LegendMM 100.47     LegendNANA
09:00 15.4 3.2 44   LegendMM LegendMM LegendMM 100.45     LegendNANA
10:00 16.3 2.3 39   LegendMM LegendMM LegendMM 100.41     LegendNANA
11:00 17.1 1.1 34   LegendMM LegendMM LegendMM 100.32     LegendNANA
12:00 16.9 0.3 32   LegendMM LegendMM LegendMM 100.27     LegendNANA
13:00 18.4 1.8 33   LegendMM LegendMM LegendMM 100.22     LegendNANA
14:00 18.4 -0.7 27   LegendMM LegendMM LegendMM 100.16     LegendNANA
15:00 18.7 -0.5 27   LegendMM LegendMM LegendMM 100.08     LegendNANA
16:00 18.7 0.1 29   LegendMM LegendMM LegendMM 100.03     LegendNANA
17:00 18.3 -1.1 27   LegendMM LegendMM LegendMM 100.00     LegendNANA
18:00 18.0 -1.4 27   LegendMM LegendMM LegendMM 99.92     LegendNANA
19:00 16.8 -0.1 32   LegendMM LegendMM LegendMM 99.83     LegendNANA
20:00 15.8 -0.2 34   LegendMM LegendMM LegendMM 99.80     LegendNANA
21:00 15.3 0.2 36   LegendMM LegendMM LegendMM 99.76     LegendNANA
22:00 15.1 0.8 38   LegendMM LegendMM LegendMM 99.66     LegendNANA
23:00 14.7 -0.3 36   LegendMM LegendMM LegendMM 99.69     LegendNANA

Notes on Data Quality.

Legend

  • E = Estimated
  • M = Missing
  • NA = Not Available*
  • [empty] = Indicates an unobserved value
Date modified: